Wind_Speed
21 22 23 23 24 24 23 21 22 22 22 22 23 22 22 22 22 22 20 20 20 20 20 19 19 20 19 19 19 19 19 18 18 17 17 17 16 15 15 15 15 14 14 13 13 13 13 13 13
22 23 24 25 26 26 24 23 24 24 24 24 24 24 24 24 23 23 22 22 22 21 21 21 21 21 20 20 20 20 20 19 19 19 18 18 18 17 17 16 16 16 15 15 15 14 14 15 15
24 24 26 27 27 26 25 25 26 25 26 26 26 25 25 25 24 24 23 23 23 23 22 22 22 22 22 22 21 21 20 20 20 19 20 20 19 19 18 18 18 17 17 16 16 16 16 17 17
25 26 27 28 28 27 27 28 28 27 28 28 27 27 27 26 25 25 25 24 25 25 25 24 24 23 23 23 23 22 22 22 21 20 20 21 21 21 20 19 19 19 18 17 17 17 17 18 18
26 27 29 29 28 28 29 30 30 29 29 29 30 28 27 27 27 27 26 26 26 26 26 26 26 25 25 24 24 23 23 23 23 22 22 21 21 21 21 20 20 20 20 19 19 19 19 19 19
28 29 29 29 28 29 30 31 31 31 30 30 31 30 29 28 28 28 28 27 27 28 27 27 27 27 26 25 25 25 25 24 24 23 22 22 21 21 21 22 22 21 22 21 21 20 20 20 20
28 29 29 29 29 29 30 31 31 32 32 31 31 32 31 30 30 29 30 29 29 29 29 28 29 28 28 27 26 26 25 25 24 24 23 23 23 22 23 23 23 22 22 22 22 20 20 20 20
28 29 29 29 30 30 31 32 31 33 34 33 33 33 32 31 32 31 31 31 30 30 30 30 30 30 29 28 28 27 27 26 26 25 25 24 24 24 24 24 23 23 23 23 23 22 21 21 21
29 30 29 29 30 31 31 33 33 34 34 34 35 35 34 34 34 32 32 32 31 31 31 31 31 31 31 30 29 29 29 28 28 27 26 25 25 25 25 24 25 25 25 25 24 23 23 23 23
30 30 29 30 31 32 32 33 34 35 35 36 36 36 34 34 34 34 33 33 33 32 32 32 31 31 31 31 31 31 31 30 30 29 28 27 27 26 25 25 26 26 26 26 26 26 25 25 25
30 31 31 32 32 33 33 33 34 36 36 36 36 36 35 35 35 35 35 35 34 34 33 33 33 32 32 33 32 32 32 32 32 31 30 29 29 28 27 27 27 27 27 28 27 28 27 27 27
31 31 33 33 33 34 35 35 35 36 37 36 37 37 36 36 37 36 36 36 35 35 35 35 34 34 34 34 34 34 34 34 34 33 32 31 31 30 29 28 28 28 28 29 30 30 29 29 29
32 32 33 33 34 35 37 37 37 37 37 37 38 38 38 37 37 37 37 37 37 37 37 36 36 35 36 36 35 35 35 35 34 34 34 33 32 31 30 30 30 29 30 30 31 31 31 30 30
32 32 33 34 34 36 38 38 38 37 38 38 38 38 38 38 37 37 36 37 37 37 38 38 38 37 37 37 37 36 36 36 35 35 35 34 34 33 32 32 31 31 31 30 31 31 31 30 30
32 33 33 34 34 35 36 37 37 36 37 38 38 38 38 38 38 37 37 37 37 37 38 38 38 38 38 38 38 37 37 37 36 36 36 35 34 34 34 33 33 32 32 31 31 31 31 31 31
32 33 34 32 33 34 36 35 34 35 37 38 38 38 38 38 38 38 38 38 38 38 38 38 39 39 39 39 38 38 38 37 37 37 37 36 36 35 34 35 34 34 33 33 33 33 32 32 32
33 33 33 32 32 33 35 34 33 34 35 36 36 37 38 38 38 39 38 38 39 39 39 39 39 39 39 39 39 40 39 39 38 37 37 37 37 36 35 35 36 35 34 33 33 34 33 33 32
31 32 31 31 32 34 35 34 33 33 34 35 35 36 37 38 38 38 38 38 38 39 40 39 39 39 39 39 40 40 40 40 40 38 38 37 37 37 37 37 37 37 35 34 34 35 35 34 34
31 32 31 31 32 33 34 34 34 34 35 35 35 35 36 37 37 37 38 38 38 38 39 38 38 37 38 38 38 40 40 40 40 39 38 38 37 38 38 39 38 38 37 36 35 36 36 35 35
30 31 31 32 31 32 32 32 33 34 34 34 34 34 35 36 36 36 37 38 38 38 38 38 38 38 38 38 39 40 39 40 40 40 39 38 39 39 40 39 38 39 38 37 37 37 36 35 35
30 30 31 31 31 31 32 32 31 31 32 33 32 32 33 35 36 36 36 37 37 37 37 38 39 39 39 39 39 40 40 40 40 39 39 39 39 39 40 39 39 39 39 38 37 36 36 36 36
29 29 31 31 31 31 31 33 31 31 31 31 31 32 32 33 35 36 36 36 37 37 37 38 38 39 39 39 39 40 40 39 39 39 39 39 39 38 39 39 39 39 39 38 37 36 36 35 35
29 29 29 30 31 32 31 33 31 30 31 31 31 32 32 33 33 35 36 36 37 37 37 38 39 39 39 39 39 40 40 40 39 39 39 39 39 39 39 39 40 40 39 37 37 36 36 35 35
28 29 30 30 30 32 30 33 32 30 31 31 32 32 33 32 33 34 35 36 37 37 37 38 39 39 39 39 39 39 38 39 39 39 39 39 39 40 39 39 40 39 39 38 37 36 36 36 36
29 29 29 30 30 31 29 32 32 30 31 32 32 32 33 33 33 34 35 36 37 37 37 37 38 38 39 39 38 38 38 39 39 38 38 39 39 39 39 39 39 40 39 38 38 37 37 37 37
29 28 28 29 30 30 30 30 30 30 31 32 32 32 33 33 34 34 35 36 37 38 38 38 38 39 38 38 38 38 39 39 39 38 39 39 39 40 40 39 39 39 39 39 39 38 39 38 38
29 28 28 29 30 30 31 31 30 29 30 31 32 32 32 33 34 34 35 36 37 38 39 39 39 39 38 38 38 39 39 39 38 39 39 39 39 40 40 39 39 39 39 39 39 40 39 39 39
28 28 28 29 29 30 31 30 30 29 28 30 31 32 33 33 33 34 34 36 36 37 39 39 40 39 40 39 38 38 38 38 38 38 39 40 39 39 39 39 38 39 39 39 40 41 40 39 39
28 28 28 28 28 29 31 30 29 29 28 29 30 31 31 32 33 34 35 35 36 36 37 38 40 40 39 39 38 38 39 38 38 38 38 39 39 39 39 40 39 39 39 38 39 39 39 39 39
28 28 28 28 28 28 30 29 27 28 28 29 29 29 30 31 33 34 34 34 35 35 36 37 38 39 38 38 39 38 39 40 39 39 39 39 38 39 39 40 40 39 39 38 38 38 39 38 38
Wind_Direction
264 263 263 262 259 258 259 258 256 254 254 253 253 253 251 250 250 251 250 248 245 244 245 246 247 247 246 246 245 245 245 244 245 246 245 243 242 244 245 246 247 249 252 253 255 257 260 263 265
264 263 262 262 261 261 261 261 259 256 255 254 252 252 251 250 251 250 250 248 247 245 245 246 247 248 248 248 248 247 247 246 245 245 246 245 244 245 246 247 249 251 253 256 258 260 262 264 267
263 262 262 262 262 263 264 262 261 258 255 253 251 250 250 250 250 249 248 248 247 246 245 246 247 248 249 249 247 245 245 245 245 246 247 246 246 247 247 250 251 253 255 257 259 262 264 266 268
263 262 262 262 263 262 261 259 259 257 256 255 253 250 250 251 250 249 247 247 248 247 247 246 247 248 249 248 247 245 245 246 247 247 247 248 248 249 250 251 253 255 257 257 259 263 265 267 268
264 263 263 264 264 263 261 258 258 257 256 255 254 252 249 249 249 249 248 249 248 247 247 246 247 248 248 248 247 247 248 248 248 248 248 249 249 250 251 253 255 257 259 260 262 264 266 268 269
264 264 264 264 263 261 260 258 257 256 254 253 254 253 249 248 249 249 249 249 248 248 247 246 247 247 247 247 247 247 247 247 249 250 249 251 253 253 253 254 256 259 260 262 264 265 266 268 269
266 264 264 264 262 260 259 258 255 254 252 251 252 252 250 248 247 247 249 249 249 248 248 247 247 247 248 247 247 248 247 247 248 250 250 251 252 256 256 256 257 258 260 262 264 264 266 267 270
267 266 265 264 264 261 259 258 256 254 253 251 251 251 250 249 248 247 249 249 249 248 248 248 247 247 248 248 248 248 249 248 248 249 250 252 253 255 256 256 258 259 260 261 262 264 266 268 270
266 265 267 266 265 263 260 258 256 253 253 252 251 252 252 250 249 248 248 248 248 248 248 248 248 248 248 248 248 248 249 249 250 251 252 252 254 254 256 258 257 259 261 262 263 263 267 269 270
268 267 267 266 265 263 261 259 257 255 253 252 251 252 252 250 250 248 247 247 248 248 247 248 248 248 248 248 248 248 248 249 250 251 251 252 254 255 257 259 259 258 260 262 263 265 267 269 270
269 269 268 266 266 264 261 260 258 256 253 252 252 251 251 250 250 249 248 248 248 249 249 249 249 249 249 248 248 249 249 249 250 251 251 252 253 255 257 259 260 260 260 262 264 267 267 269 270
270 269 268 267 266 264 261 260 259 258 255 253 252 252 252 251 250 249 249 248 248 249 249 249 250 250 249 248 249 249 250 250 249 251 252 253 254 256 258 260 261 261 261 263 264 266 266 267 268
272 272 270 269 267 264 261 260 259 257 255 253 252 251 252 251 250 249 249 248 248 248 249 249 249 249 250 249 249 249 249 250 250 251 253 254 255 257 259 261 263 262 262 263 265 267 266 267 268
275 273 272 271 267 265 262 259 258 257 256 253 253 252 252 252 250 249 248 247 247 248 249 249 249 249 249 249 249 249 249 250 250 251 253 254 256 257 258 261 261 261 263 263 265 266 267 268 268
276 275 274 271 267 264 262 259 257 257 255 254 254 253 253 252 250 250 249 248 247 248 249 249 249 249 249 249 249 249 250 251 251 251 252 253 255 257 257 258 259 260 262 263 264 265 266 267 269
276 275 274 271 266 263 262 259 256 256 255 253 253 253 254 254 252 250 249 248 247 247 249 250 249 248 248 248 249 249 249 250 251 250 251 253 255 257 258 257 257 259 262 263 265 265 266 267 269
276 278 276 272 268 264 262 260 256 254 255 253 253 254 253 254 252 250 249 249 247 247 248 249 248 247 247 248 248 248 249 249 250 251 251 252 254 256 258 257 257 258 261 263 265 266 266 267 267
280 280 278 274 270 265 262 260 258 256 255 252 253 255 255 255 253 251 250 250 248 248 248 249 247 247 247 247 248 248 249 249 250 250 251 252 254 256 257 258 257 258 260 262 264 265 265 266 266
280 279 278 276 272 268 264 261 259 258 256 255 255 256 256 256 254 252 251 250 249 249 249 249 247 247 247 247 248 249 249 249 249 249 251 252 254 255 256 257 258 259 260 262 264 265 265 265 264
280 279 278 278 274 270 266 261 259 258 257 256 256 257 258 257 255 253 251 250 249 249 249 249 248 247 247 248 249 249 248 248 249 250 251 252 254 256 255 256 259 259 260 262 264 265 265 265 264
280 279 278 278 276 271 267 262 260 259 258 257 257 259 260 258 255 253 251 250 250 250 249 249 249 248 248 248 250 249 248 249 249 250 251 252 254 255 255 257 259 261 262 263 265 266 266 266 265
282 281 278 276 275 272 269 267 260 259 258 258 260 261 260 259 256 253 251 250 249 249 249 248 248 249 248 248 250 249 249 248 250 251 252 253 254 256 256 257 260 262 262 263 265 265 265 265 265
283 281 279 276 275 272 270 270 266 263 261 260 261 261 260 258 256 255 253 251 250 250 249 249 249 250 250 250 251 250 250 250 251 252 253 253 255 256 257 258 260 261 261 262 263 263 264 265 265
283 281 279 278 275 272 271 272 269 265 265 263 262 261 260 259 257 256 255 252 251 250 249 249 248 249 250 252 252 251 251 251 251 251 253 253 254 256 257 259 260 260 259 261 261 262 263 265 266
282 281 280 278 277 276 274 273 272 269 268 267 265 263 260 259 259 258 256 254 252 251 250 250 249 250 251 253 253 251 252 253 252 251 252 254 255 256 257 259 260 258 258 259 260 261 262 264 265
281 280 280 281 281 279 275 274 275 273 271 269 267 265 262 260 260 259 257 255 253 252 251 250 251 251 252 253 253 253 254 254 254 253 253 255 256 257 258 259 260 258 257 258 259 260 263 264 265
281 277 277 278 279 279 276 276 276 275 273 271 268 265 263 262 261 261 258 256 255 252 251 250 251 250 251 252 252 253 254 254 254 254 255 256 258 259 258 259 260 259 258 259 260 262 263 264 266
279 279 278 278 278 279 278 277 276 276 275 272 270 267 264 263 263 262 260 257 255 254 252 251 252 251 251 251 252 252 252 252 253 255 257 257 258 259 258 258 258 258 258 260 261 262 263 265 266
278 277 277 277 277 280 280 279 279 277 275 273 271 267 264 263 264 263 262 260 258 255 254 253 252 252 252 251 252 252 252 252 253 254 256 258 259 259 257 257 258 259 259 260 261 261 262 264 265
278 278 278 277 274 275 280 281 281 278 275 273 270 268 266 265 264 264 263 260 258 257 256 255 253 252 252 252 251 252 252 252 253 255 255 256 257 257 258 259 258 258 259 260 260 260 262 264 265
Height
5805 5806 5807 5808 5809 5810 5811 5814 5814 5815 5817 5818 5819 5820 5822 5823 5825 5828 5828 5828 5830 5832 5833 5835 5836 5837 5838 5839 5841 5842 5843 5844 5845 5846 5847 5848 5849 5850 5851 5852 5852 5853 5854 5854 5855 5855 5856 5856 5856
5801 5802 5802 5803 5803 5804 5807 5809 5809 5811 5812 5813 5815 5816 5818 5819 5821 5822 5823 5825 5826 5828 5830 5831 5833 5834 5835 5836 5838 5839 5840 5841 5842 5843 5844 5845 5846 5847 5848 5849 5850 5851 5851 5852 5852 5853 5853 5854 5854
5796 5796 5797 5797 5798 5800 5803 5803 5803 5804 5806 5808 5810 5811 5813 5815 5817 5818 5820 5821 5822 5824 5826 5828 5829 5831 5832 5833 5834 5835 5837 5838 5839 5840 5841 5842 5843 5844 5845 5846 5847 5848 5848 5849 5850 5850 5850 5851 5851
5790 5791 5791 5792 5793 5795 5796 5797 5797 5799 5800 5802 5804 5806 5808 5810 5812 5813 5815 5816 5818 5820 5822 5824 5825 5827 5828 5829 5830 5832 5833 5834 5835 5836 5837 5838 5839 5841 5842 5843 5844 5845 5845 5846 5846 5847 5847 5847 5848
5783 5784 5784 5785 5786 5788 5789 5790 5791 5792 5794 5796 5798 5800 5803 5804 5806 5808 5810 5812 5813 5815 5817 5819 5821 5822 5824 5825 5826 5828 5829 5830 5831 5832 5834 5835 5836 5837 5838 5839 5840 5841 5842 5842 5843 5843 5843 5844 5844
5777 5777 5777 5778 5780 5781 5782 5783 5784 5786 5788 5790 5791 5794 5796 5798 5800 5802 5804 5806 5808 5810 5812 5814 5816 5817 5819 5820 5822 5823 5825 5826 5827 5828 5830 5830 5832 5833 5834 5835 5836 5837 5838 5838 5839 5839 5840 5840 5840
5770 5770 5770 5771 5772 5774 5774 5775 5777 5778 5781 5783 5785 5787 5789 5791 5794 5796 5798 5800 5802 5805 5807 5808 5810 5812 5814 5815 5817 5819 5820 5821 5823 5824 5825 5826 5827 5829 5830 5831 5832 5833 5833 5834 5835 5835 5835 5835 5835
5762 5763 5763 5765 5765 5767 5768 5768 5770 5771 5773 5776 5778 5779 5782 5784 5787 5789 5792 5794 5797 5799 5801 5803 5805 5807 5808 5810 5812 5813 5815 5816 5818 5819 5820 5822 5823 5824 5825 5826 5827 5828 5829 5829 5830 5831 5831 5831 5831
5754 5756 5757 5758 5758 5759 5760 5760 5762 5763 5766 5768 5770 5772 5775 5777 5780 5783 5785 5787 5790 5792 5795 5797 5799 5801 5802 5804 5806 5808 5810 5811 5813 5814 5816 5817 5818 5819 5820 5821 5822 5823 5824 5825 5825 5826 5826 5826 5826
5747 5748 5750 5751 5751 5751 5752 5753 5754 5756 5758 5760 5762 5765 5767 5770 5773 5776 5778 5780 5783 5786 5788 5790 5792 5795 5796 5798 5800 5802 5804 5806 5807 5808 5810 5812 5813 5814 5815 5816 5817 5818 5819 5819 5820 5820 5821 5821 5821
5740 5741 5742 5742 5742 5743 5743 5745 5746 5747 5749 5752 5755 5757 5760 5762 5765 5768 5770 5773 5776 5778 5780 5783 5786 5788 5790 5792 5794 5796 5797 5799 5801 5802 5804 5806 5807 5808 5810 5811 5812 5812 5813 5814 5814 5815 5815 5815 5816
5732 5733 5733 5734 5734 5734 5735 5736 5738 5739 5741 5744 5746 5748 5751 5754 5757 5760 5762 5765 5768 5771 5773 5775 5778 5781 5783 5784 5787 5789 5791 5792 5794 5796 5798 5799 5801 5802 5804 5804 5805 5806 5807 5808 5808 5808 5809 5809 5810
5725 5725 5725 5725 5725 5725 5726 5727 5728 5730 5732 5734 5737 5739 5742 5745 5748 5751 5753 5756 5760 5762 5765 5767 5770 5772 5775 5777 5779 5781 5783 5785 5787 5789 5791 5793 5794 5796 5797 5798 5799 5800 5801 5801 5802 5802 5803 5803 5804
5716 5716 5716 5716 5715 5715 5715 5716 5718 5721 5723 5725 5727 5730 5733 5735 5738 5742 5745 5748 5751 5754 5756 5759 5761 5764 5766 5769 5771 5773 5776 5778 5780 5782 5783 5785 5787 5789 5790 5791 5792 5793 5794 5795 5795 5796 5796 5797 5797
5708 5707 5707 5707 5705 5705 5705 5706 5709 5711 5713 5715 5718 5721 5723 5726 5729 5732 5735 5738 5742 5745 5747 5750 5752 5755 5758 5760 5762 5765 5767 5770 5772 5774 5775 5777 5779 5781 5783 5784 5785 5786 5787 5788 5789 5789 5790 5790 5791
5699 5698 5698 5699 5697 5696 5697 5697 5701 5702 5703 5706 5709 5711 5714 5717 5720 5723 5726 5729 5732 5735 5738 5741 5743 5745 5748 5751 5754 5756 5758 5761 5763 5765 5767 5769 5771 5773 5774 5776 5778 5779 5780 5781 5782 5782 5783 5783 5784
5691 5690 5689 5690 5689 5687 5687 5688 5692 5693 5695 5697 5700 5702 5705 5708 5711 5714 5717 5720 5723 5725 5728 5731 5732 5735 5738 5741 5744 5747 5749 5752 5754 5756 5758 5760 5762 5764 5766 5768 5770 5771 5772 5773 5774 5775 5776 5776 5776
5683 5682 5681 5680 5680 5679 5679 5681 5683 5685 5687 5689 5691 5694 5697 5699 5702 5705 5708 5710 5713 5715 5718 5721 5723 5726 5728 5731 5734 5737 5740 5742 5744 5747 5749 5752 5754 5756 5758 5760 5761 5763 5764 5765 5766 5767 5768 5768 5769
5674 5673 5673 5673 5672 5671 5671 5673 5675 5677 5679 5681 5683 5685 5688 5690 5693 5696 5698 5701 5704 5706 5709 5712 5714 5717 5719 5722 5724 5727 5730 5732 5735 5737 5740 5743 5745 5747 5749 5751 5753 5755 5756 5757 5758 5759 5760 5761 5761
5667 5666 5666 5666 5664 5663 5663 5665 5668 5669 5671 5674 5675 5677 5679 5682 5684 5687 5689 5692 5694 5697 5700 5703 5706 5708 5710 5713 5715 5717 5720 5723 5725 5728 5731 5734 5736 5738 5740 5742 5744 5746 5748 5749 5750 5751 5752 5752 5753
5660 5659 5659 5658 5657 5656 5656 5658 5660 5662 5663 5666 5668 5669 5671 5673 5675 5677 5680 5682 5685 5688 5691 5694 5697 5699 5701 5704 5706 5708 5711 5713 5716 5719 5722 5724 5727 5729 5731 5733 5735 5737 5739 5740 5741 5742 5743 5744 5745
5654 5653 5651 5650 5649 5649 5650 5649 5653 5655 5656 5658 5660 5661 5663 5664 5666 5668 5671 5673 5676 5679 5682 5685 5687 5690 5692 5695 5697 5699 5702 5705 5707 5710 5713 5715 5718 5720 5722 5724 5726 5728 5730 5731 5732 5733 5734 5735 5736
5647 5646 5644 5643 5642 5641 5642 5641 5645 5647 5649 5651 5652 5654 5655 5656 5658 5660 5662 5665 5667 5670 5673 5676 5678 5681 5683 5686 5688 5690 5693 5696 5698 5701 5703 5706 5709 5711 5713 5715 5717 5718 5720 5722 5723 5724 5725 5726 5727
5639 5639 5637 5636 5634 5634 5636 5635 5636 5639 5641 5643 5645 5646 5647 5648 5650 5651 5653 5656 5658 5661 5664 5667 5669 5671 5674 5676 5679 5681 5684 5686 5689 5691 5694 5697 5699 5702 5704 5706 5707 5709 5711 5712 5714 5715 5716 5717 5718
5632 5631 5630 5628 5626 5627 5629 5627 5629 5632 5633 5635 5636 5637 5638 5640 5641 5643 5645 5647 5650 5652 5655 5657 5660 5662 5664 5667 5669 5671 5674 5676 5679 5682 5685 5688 5690 5692 5694 5696 5697 5699 5701 5703 5704 5706 5707 5708 5709
5624 5624 5623 5621 5620 5620 5620 5619 5623 5624 5624 5625 5626 5628 5629 5631 5633 5635 5636 5638 5641 5643 5645 5648 5651 5653 5655 5657 5660 5662 5665 5667 5670 5673 5675 5678 5680 5682 5684 5686 5688 5690 5692 5693 5695 5696 5698 5699 5700
5617 5617 5617 5615 5613 5613 5613 5613 5615 5616 5616 5616 5617 5619 5620 5622 5624 5626 5627 5629 5631 5633 5636 5638 5640 5643 5645 5647 5650 5652 5655 5657 5660 5663 5665 5667 5670 5672 5674 5676 5678 5680 5682 5684 5685 5687 5688 5689 5690
5611 5610 5610 5608 5606 5605 5606 5606 5607 5608 5607 5608 5608 5610 5611 5613 5614 5616 5618 5620 5622 5624 5626 5628 5631 5633 5635 5638 5640 5642 5645 5647 5650 5652 5655 5657 5659 5662 5664 5666 5668 5670 5672 5674 5676 5677 5678 5680 5680
5604 5604 5602 5601 5600 5600 5599 5602 5600 5600 5600 5600 5601 5601 5602 5604 5605 5607 5608 5610 5612 5614 5616 5618 5620 5623 5625 5628 5630 5633 5635 5637 5640 5642 5644 5647 5649 5651 5653 5656 5657 5659 5662 5663 5665 5667 5668 5669 5670
5596 5596 5596 5595 5594 5593 5592 5596 5593 5593 5592 5592 5593 5593 5594 5595 5597 5598 5599 5601 5602 5604 5606 5608 5610 5613 5615 5618 5620 5623 5625 5627 5630 5632 5635 5637 5639 5641 5643 5645 5647 5649 5651 5653 5655 5657 5658 5659 5660